Lafayette, LA

1:32 PM CST on December 06, 2016 (GMT -0600)
Lafayette Regional

Weather History for KLFT - February, 2012

Change the Weather History Date:

Thursday, February 16, 2012

  Actual Average Record
Temperature  
Mean Temperature 64 °F 56 °F  
Max Temperature 70 °F 65 °F 84 °F (1911)
Min Temperature 58 °F 47 °F 22 °F (1895)
Degree Days  
Heating Degree Days 1 10  
Month to date heating degree days 138 176  
Since 1 July heating degree days 928 1132  
Growing Degree Days 14 (Base 50)    
Moisture  
Dew Point 60 °F    
Average Humidity 84    
Maximum Humidity 100    
Minimum Humidity 68    
Precipitation  
Precipitation 0.01 in 0.16 in 1.81 in (1965)
Month to date precipitation 2.09 2.65  
Year to date precipitation 8.79 8.32  
Snow  
Snow 0.00 in 0.00 in T in (1903)
Month to date snowfall 0.0 0.0  
Since 1 July snowfall 0.0 0.0  
Snow Depth 0.00 in    
Sea Level Pressure  
Sea Level Pressure 30.08 in    
Wind  
Wind Speed 8 mph (North)    
Max Wind Speed 15 mph    
Max Gust Speed 20 mph    
Visibility 9 miles    
Events      
T = Trace of Precipitation, MM = Missing Value Source: NWS Daily Summary

Daily Weather History Graph

Daily Weather History Graph

Search for Another Location

Airport or City:

Trip Planner

Search our weather history database for the weather conditions in past years. The results will help you decide how hot, cold, wet, or windy it might be!

Date:

Astronomy

Feb. 16, 2012 Rise Set
Actual Time 6:47 AM CST 5:56 PM CST
Civil Twilight 6:23 AM CST 6:21 PM CST
Nautical Twilight 5:54 AM CST 6:49 PM CST
Astronomical Twilight 5:27 AM CST 7:17 PM CST
Moon 2:29 AM CST (2/16) 1:02 PM CST (2/16)
Length of Visible Light 11h 58m
Length of Day
11h 09m
Waning Crescent, 28% of the Moon is Illuminated
Feb 16
Waning Crescent
Feb 21
New
Feb 29
First Quarter
Mar 8
Full
Mar 14
Last Quarter

Hourly Weather History & Observations

Time (CST) Temp. Dew Point Humidity Pressure Visibility Wind Dir Wind Speed Gust Speed Precip Events Conditions
12:25 AM 69.8 °F 68.0 °F 94% 30.01 in 4.0 mi WSW 8.1 mph - 0.01 in   Overcast
12:53 AM 69.1 °F 68.0 °F 96% 30.02 in 1.8 mi WSW 8.1 mph - 0.01 in   Overcast
1:05 AM 69.8 °F 66.2 °F 88% 30.02 in 2.5 mi West 6.9 mph - N/A   Overcast
1:21 AM 68.0 °F 66.2 °F 94% 30.02 in 4.0 mi West 5.8 mph - N/A   Overcast
1:53 AM 68.0 °F 66.9 °F 96% 30.02 in 3.0 mi West 6.9 mph - N/A   Overcast
2:53 AM 66.9 °F 66.0 °F 97% 30.03 in 9.0 mi West 5.8 mph - N/A   Overcast
3:13 AM 66.2 °F 64.4 °F 94% 30.03 in 10.0 mi West 5.8 mph - N/A   Overcast
3:53 AM 64.4 °F 64.4 °F 100% 30.03 in 10.0 mi WNW 3.5 mph - N/A   Clear
4:00 AM 64.4 °F 64.4 °F 100% 30.03 in 10.0 mi WNW 3.5 mph - N/A   Partly Cloudy
4:16 AM 64.4 °F 62.6 °F 94% 30.03 in 8.0 mi NW 4.6 mph - N/A   Mostly Cloudy
4:53 AM 64.0 °F 63.0 °F 96% 30.05 in 9.0 mi NNW 5.8 mph - N/A   Mostly Cloudy
5:53 AM 64.0 °F 62.1 °F 93% - 10.0 mi North 9.2 mph - N/A   Overcast
6:45 AM 62.6 °F 60.8 °F 94% - 10.0 mi NNE 9.2 mph - N/A   Overcast
6:53 AM 63.0 °F 60.1 °F 90% - 10.0 mi NNE 8.1 mph - N/A   Overcast
7:02 AM 62.6 °F 60.8 °F 94% - 10.0 mi NNE 8.1 mph - N/A   Overcast
7:53 AM 64.0 °F 61.0 °F 90% 30.11 in 10.0 mi NNE 10.4 mph - N/A   Overcast
8:00 AM 64.4 °F 60.8 °F 88% 30.12 in 10.0 mi NNE 9.2 mph - N/A   Overcast
8:53 AM 64.0 °F 60.1 °F 87% 30.14 in 10.0 mi NNE 12.7 mph - N/A   Overcast
9:53 AM 64.9 °F 60.1 °F 84% 30.15 in 10.0 mi NNE 9.2 mph - N/A   Overcast
10:53 AM 64.9 °F 60.1 °F 84% 30.16 in 10.0 mi NNE 10.4 mph - N/A   Overcast
11:22 AM 64.4 °F 60.8 °F 88% 30.16 in 10.0 mi NNE 10.4 mph - N/A   Overcast
11:53 AM 66.9 °F 59.0 °F 76% 30.14 in 10.0 mi NNE 12.7 mph - N/A   Overcast
12:40 PM 68.0 °F 59.0 °F 73% 30.11 in 10.0 mi NNE 12.7 mph - N/A   Scattered Clouds
12:53 PM 69.1 °F 59.0 °F 70% 30.10 in 10.0 mi NE 11.5 mph - N/A   Partly Cloudy
1:53 PM 68.0 °F 57.9 °F 70% 30.08 in 10.0 mi NNE 9.2 mph - N/A   Partly Cloudy
2:53 PM 68.0 °F 57.9 °F 70% 30.10 in 10.0 mi North 6.9 mph - N/A   Overcast
3:28 PM 66.2 °F 57.2 °F 73% 30.10 in 10.0 mi NNE 8.1 mph - N/A   Scattered Clouds
3:53 PM 66.0 °F 57.0 °F 73% 30.10 in 10.0 mi NNE 9.2 mph - N/A   Clear
4:53 PM 64.9 °F 57.0 °F 75% 30.10 in 10.0 mi North 9.2 mph - N/A   Clear
5:53 PM 64.0 °F 57.0 °F 78% 30.10 in 10.0 mi NNE 6.9 mph - N/A   Clear
6:53 PM 63.0 °F 55.0 °F 75% 30.09 in 10.0 mi NNE 6.9 mph - N/A   Clear
7:53 PM 61.0 °F 55.0 °F 81% 30.09 in 10.0 mi NNE 6.9 mph - N/A   Clear
8:53 PM 61.0 °F 54.0 °F 78% 30.11 in 10.0 mi North 6.9 mph - N/A   Clear
9:53 PM 60.1 °F 53.1 °F 78% 30.12 in 10.0 mi NNE 6.9 mph - N/A   Clear
10:53 PM 59.0 °F 53.1 °F 81% 30.11 in 10.0 mi NNE 9.2 mph - N/A   Clear
11:53 PM 57.9 °F 53.1 °F 84% 30.08 in 10.0 mi NNE 8.1 mph - N/A   Clear